Flag for Germany Weather past 2 weeks in Vechta, Lower Saxony, Germany

Now
55 °F

Partly sunny.


Feels Like: 54 °F
Forecast: 46 / 57 °F
Wind: 6 mph from Northwest

Location: Bremen Airport

Current Time: May 25, 2015 at 8:48:34 PM

Latest Report: May 25, 2015 at 8:20 PM


Visibility: N/A

Pressure: 29.95 "Hg

Humidity: 51%

Dew point: 37 °F

Location of VechtaLocation

Historic Weather in Vechta — Graph

°F

Vechta temperature yesterday

Maximum temperature yesterday: 66 °F (at 5:20 PM)
Minimum temperature yesterday: 36 °F (at 4:50 AM)
Average temperature yesterday: 53 °F

Past Weeks' High & Low Weather Summary

 TemperatureHumidityPressure
High75 °F (May 11, 4:50 PM)100% (May 16, 1:50 AM)30.33 "Hg (May 16, 1:50 AM)
Low34 °F (May 16, 5:20 AM)36% (May 11, 6:20 PM)29.59 "Hg (May 18, 7:20 PM)
Average53 °F72%30.04 "Hg
* Reported May 10 7:20 PM — May 25 7:20 PM, Vechta, Weather by CustomWeather, © 2015

Note: Actual official high and low records may vary slightly from our data, if they occured in-between our weather recording intervals... More about our weather records

Advertising

Vechta weather history for previous 24 hours

 ConditionsComfort  
Time TempWeatherWind HumidityBarometerVisibility
7:20 PM
Mon, May 25
55 °FPartly sunny.9 mph47%29.95 "HgN/A
6:50 PM57 °FPartly sunny.12 mph44%29.95 "HgN/A
6:20 PM57 °FPartly sunny.12 mph48%29.95 "HgN/A
5:50 PM57 °FPartly sunny.9 mph48%29.95 "HgN/A
5:20 PM57 °FPartly sunny.14 mph44%29.95 "HgN/A
4:50 PM59 °FPartly sunny.13 mph36%29.95 "HgN/A
4:20 PM57 °FPartly sunny.12 mph41%29.95 "HgN/A
3:50 PM57 °FPartly sunny.9 mph51%29.95 "HgN/A
3:20 PM57 °FBroken clouds.9 mph48%29.95 "HgN/A
2:50 PM55 °FPartly sunny.15 mph59%29.95 "HgN/A
2:20 PM55 °FPartly sunny.14 mph59%29.95 "HgN/A
1:50 PM55 °FBroken clouds.15 mph67%29.95 "HgN/A
1:20 PM57 °FBroken clouds.14 mph67%29.95 "HgN/A
12:50 PM57 °FBroken clouds.14 mph67%29.95 "HgN/A
12:20 PM55 °FBroken clouds.15 mph72%29.95 "HgN/A
11:50 AM59 °FBroken clouds.9 mph55%29.95 "HgN/A
11:20 AM57 °FBroken clouds.14 mph59%29.95 "HgN/A
10:50 AM55 °FPartly sunny.13 mph67%29.95 "HgN/A
10:20 AM55 °FPartly sunny.9 mph77%29.95 "HgN/A
9:50 AM54 °FPartly sunny.9 mph88%29.95 "HgN/A
9:20 AM52 °FPartly sunny.12 mph94%29.95 "HgN/A
8:50 AM54 °FPartly sunny.12 mph88%29.95 "HgN/A
8:20 AM54 °FPartly sunny.8 mph88%29.95 "HgN/A
7:50 AM54 °FPartly sunny.8 mph88%29.95 "HgN/A
7:20 AM54 °FPartly sunny.6 mph88%29.95 "HgN/A
6:50 AM52 °FPartly sunny.3 mph94%29.95 "HgN/A
6:20 AM52 °FPartly sunny.1 mph94%29.95 "HgN/A
5:50 AM50 °FPassing clouds.2 mph94%29.95 "Hg4 mi
5:20 AM50 °FPartly cloudy.2 mph94%29.95 "Hg4 mi
4:50 AM50 °FPartly cloudy.2 mph94%29.95 "Hg4 mi
4:20 AM50 °FLight rain. Partly cloudy.2 mph94%29.95 "HgN/A
3:50 AM50 °FLight rain. Clear.1 mph94%29.95 "HgN/A
3:20 AM50 °FPassing clouds.3 mph94%29.95 "HgN/A
2:50 AM50 °FClear.1 mph94%29.98 "Hg10 mi
2:20 AM50 °FClear.6 mph94%29.98 "Hg10 mi
1:50 AM50 °FPassing clouds.5 mph94%29.98 "HgN/A
1:20 AM50 °FClear.5 mph88%29.98 "Hg10 mi
12:50 AM46 °FClear.3 mph93%29.98 "Hg10 mi
12:20 AM46 °FClear.3 mph93%29.98 "Hg10 mi
11:20 PM
Sun, May 24
48 °FClear.6 mph87%30.01 "Hg10 mi
10:50 PM50 °FClear.5 mph76%30.01 "Hg10 mi
10:20 PM55 °FSunny.2 mph59%30.01 "Hg10 mi
9:50 PM59 °FSunny.7 mph55%30.01 "Hg10 mi
9:20 PM59 °FSunny.9 mph59%30.01 "Hg10 mi
8:50 PM61 °FSunny.5 mph52%30.01 "Hg10 mi
8:20 PM63 °FSunny.6 mph49%30.01 "Hg10 mi
Weather by CustomWeather, © 2015

See weather overviewHow to use our weather pages